Tracking 29892 objects as of 21-Nov-2024
HD Live streaming from Space Station
objects crossing your sky now

STARLINK-30281

Track STARLINK-30281 now!
10-day predictions
STARLINK-30281 is classified as:


NORAD ID: 57716
Int'l Code: 2023-129U
Perigee: 565.5 km
Apogee: 567.0 km
Inclination: 43.0 °
Period: 95.8 minutes
Semi major axis: 6937 km
RCS: Unknown
Launch date: August 27, 2023
Source: United States (US)
Launch site: AIR FORCE EASTERN TEST RANGE (AFETR)
Your satellite tracking list
Your tracking list is empty




NASA's NSSDC Master Catalog

Two Line Element Set (TLE):
1 57716U 23129U   24325.94760531  .00000040  00000-0  18005-4 0  9996
2 57716  43.0047 174.2806 0001071 278.1813  81.8908 15.02537996 69098
Source of the keplerian elements: AFSPC